Zurück zum Katalog

SL-12 DEB

LostHEO
NORAD 29463·DEBRIS·🇷🇺 Russia

Gestartet May 31, 1989 von Baikonur Cosmodrome

Loading…

Nächste Überflüge (nächste 24 Stunden)

TLE

VeraltetSource: Space-Track

Epoche: Mar 21, 2026, 12:17 UTC

1 29463U 89039DH  26080.51210798 -.00000011  00000-0  00000-0 0  9995
2 29463  64.0275 175.4791 2611340  87.1976 302.1375  7.12752259 20439

Verfolge SL-12 DEB in Echtzeit mit AllMySat

Download on the App Store